Location: Baggettsville
(36.4767°N, 86.7303°W)
Time: 12:26:42
(UTC+00:00)

Tiangong - Visible Passes

Search period start: 21 September 2021 00:00
Search period end: 01 October 2021 00:00
Orbit: 380 x 385 km, 41.5° (Epoch: 20 September)

Date Brightness Start Highest point End Pass type
(mag) Time Alt. Az. Time Alt. Az. Time Alt. Az.
22 Sep 4.0 10:54:13 10° SSE 10:55:31 12° SE 10:56:50 10° ESE visible
24 Sep 3.2 10:29:22 11° SSW 10:31:43 22° SE 10:34:15 10° E visible
25 Sep 4.1 09:32:27 11° SE 09:32:27 11° SE 09:33:00 10° ESE visible
25 Sep 1.2 11:05:00 10° WSW 11:08:08 75° SSE 11:11:18 10° ENE visible
26 Sep 1.9 10:07:38 38° S 10:08:01 40° SSE 10:11:01 10° E visible
27 Sep 1.1 10:42:44 22° W 10:44:35 66° NNW 10:47:44 10° ENE visible
28 Sep 2.7 09:45:34 35° ENE 09:45:34 35° ENE 09:47:34 10° ENE visible
29 Sep 1.6 10:20:34 39° NW 10:21:07 44° NNW 10:24:11 10° ENE visible
30 Sep 4.2 09:23:21 16° ENE 09:23:21 16° ENE 09:24:03 10° ENE visible
30 Sep 2.4 10:55:32 12° WNW 10:58:01 31° N 11:00:53 10° ENE visible
